Regional Weather Roundup
Issued by NWS Green Bay, WI

Home | Current Version | Previous Version | Graphics & Text | Print | Product List | Glossary Off
Versions: 1 2 3 4 5 6 7 8 9 10 11 12 13 14 15 16 17 18 19 20 21 22 23 24 25 26 27 28 29 30 31 32 33 34 35 36 37 38 39 40 41 42 43 44 45 46 47 48 49 50

754
ASUS43 KGRB 301700
RWRGRB

NORTH-CENTRAL AND NORTHEAST WISCONSIN REGIONAL WEATHER ROUNDUP
NATIONAL WEATHER SERVICE GREEN BAY WI
1200 PM CDT FRI SEP 30 2016

WIZ005-009-010>012-018-019-301800-
NORTH CENTRAL WISCONSIN

CITY           SKY/WX    TMP DP  RH WIND       PRES   REMARKS
IRONWOOD       SUNNY     61  54  77 N8        30.41S
MANITOWISH WTR NOT AVBL
ARBOR VITAE    NOT AVBL
EAGLE RIVER    NOT AVBL
LAND O LAKES   NOT AVBL
RHINELANDER    SUNNY     64  49  57 NE12G18   30.36F
PHILLIPS       NOT AVBL
ANTIGO         NOT AVBL
TOMAHAWK       NOT AVBL
MERRILL        NOT AVBL
$$

WIZ013-073-301800-
NORTHEAST WISCONSIN

CITY           SKY/WX    TMP DP  RH WIND       PRES   REMARKS
IRON MOUNTAIN  MOSUNNY   68  49  50 NE13G21   30.34F
MARINETTE      CLOUDY    61  55  81 NE18      30.33S
$$

WIZ017-030-035>037-045-301800-
CENTRAL WISCONSIN

CITY           SKY/WX    TMP DP  RH WIND       PRES   REMARKS
MEDFORD        NOT AVBL
WAUSAU         SUNNY     66  50  56 NE9G20    30.30F
MOSINEE        NOT AVBL
MARSHFIELD     SUNNY     67  49  52 NE15      30.30S
WISC RAPIDS    MOSUNNY   67  56  67 E10       30.30S
STEVENS POINT  NOT AVBL
WAUPACA        NOT AVBL
SHAWANO        NOT AVBL
CLINTONVILLE   NOT AVBL
WAUTOMA        LGT RAIN  59  57  93 NE9       30.28S FOG
$$

WIZ038-039-048-051-301800-
FOX VALLEY

CITY           SKY/WX    TMP DP  RH WIND       PRES   REMARKS
NWS GREEN BAY  CLOUDY    62  59  90 N18       30.28F
APPLETON       LGT RAIN  57  57 100 NE8       30.27S FOG
OSHKOSH        CLOUDY    60  58  92 NE9       30.26S
FOND DU LAC    CLOUDY    61  58  90 NE12      30.25F
$$

WIZ022-050-052-301800-
EAST CENTRAL WISCONSIN

CITY           SKY/WX    TMP DP  RH WIND       PRES   REMARKS
EPHRAIM        NOT AVBL
WASHINGTON ISL NOT AVBL
STURGEON BAY   NOT AVBL
MANITOWOC      NOT AVBL
SHEBOYGAN      LGT RAIN  61  57  87 NE14      30.25F
$$

LMZ563-521-522-541>543-301800-
LAKESHORE

STATION/POSITION TIME  TEMP    WIND        PRES    VSBY  WAVE
                       AIR SEA DIR/SP/G                  HT/PER
                 (UTC) (F)     (DEG/KT/KT) (MB)    (MI)  (FT/S)
SHEBOYGAN LKSHOR 1600   61      40/ 15/ 17 1024.0F
KEWAUNEE LKSHORE 1600   62      50/  9/ 15 1024.9R
NORTHPORT PIER   1600   62      40/ 12/ 16 1026.8S
N MID LAKE BUOY  1550   62 65   70/ 17/ 21 1025.9R         4/ 4
S GREEN BAY BUOY 1600   61 62   50/ 19/ 23 1025.4R
SISTER BAY LKSHO 1608   64      90/  8/ 16   N/A
CHAMBERS ISLAND  1600   61      10/ 20/ 23 1026.4S
MENOMINEE LKSHOR 1600   60      20/ 21/ 24 1025.8F
$$




USA.gov is the U.S. government's official web portal to all federal, state and local government web resources and services.